Weather History for CYUS - January, 2013

Change the Weather History Date:

Friday, January 11, 2013

  Actual Average Record
Temperature  
Mean Temperature -40 °F -  
Max Temperature -36 °F - - ()
Min Temperature -44 °F - - ()
Degree Days  
Heating Degree Days 105    
Moisture  
Dew Point -    
Average Humidity    
Maximum Humidity    
Minimum Humidity    
Precipitation  
Precipitation 0.00 in - - ()
Sea Level Pressure  
Sea Level Pressure 29.98 in    
Wind  
Wind Speed 10 mph ()    
Max Wind Speed 14 mph    
Max Gust Speed -    
Visibility 3.4 miles    
Events      
T = Trace of Precipitation, MM = Missing Value Source: Averaged Metar Reports

Daily Weather History Graph

Daily Weather History Graph

Search for Another Location

Airport or City:

Trip Planner

Search our weather history database for the weather conditions in past years. The results will help you decide how hot, cold, wet, or windy it might be!

Date:

Astronomy

Jan. 11, 2013 Rise Set
Actual Time 11:39 AM CST 1:04 PM CST
Civil Twilight 9:24 AM CST 3:19 PM CST
Nautical Twilight 7:58 AM CST 4:46 PM CST
Astronomical Twilight 6:46 AM CST 5:58 PM CST
Moon 9:59 AM CST (1/11) 2:43 PM CST (1/11)
Length of Visible Light 5h 55m
Length of Day
1h 25m
Waning Crescent, 0% of the Moon is Illuminated
Jan 11
Waning Crescent
Jan 11
New
Jan 18
First Quarter
Jan 26
Full
Feb 3
Last Quarter

Hourly Weather History & Observations

Time (CST) Temp. Windchill Dew Point Humidity Pressure Visibility Wind Dir Wind Speed Gust Speed Precip Events Conditions
12:00 AM -36 °F - - % 29.99 in 2 mi SW 11.5 mph - -  
12:00 AM -36.4 °F -62.7 °F - N/A% 29.99 in 2.4 mi SW 11.5 mph - N/A   Unknown
12:18 AM -36.4 °F -58.5 °F - N/A% 29.97 in 2.1 mi SSW 8.1 mph - N/A   Unknown
12:43 AM -36.4 °F -58.5 °F - N/A% 29.97 in 1.4 mi SSW 8.1 mph - N/A   Unknown
1:00 AM -36.4 °F -62.7 °F - N/A% 30.00 in 1.6 mi SSW 11.5 mph - N/A   Unknown
1:01 AM -36.4 °F -62.7 °F - N/A% 29.96 in 1.6 mi SSW 11.5 mph - N/A   Unknown
1:40 AM -36.4 °F -65.0 °F - N/A% 29.96 in 2.0 mi SW 13.8 mph - N/A   Unknown
1:55 AM -36.4 °F -60.1 °F - N/A% 29.97 in 1.4 mi SSW 9.2 mph - N/A   Unknown
2:01 AM -36.4 °F -58.5 °F - N/A% 29.97 in 1.1 mi SSW 8.1 mph - N/A   Unknown
2:23 AM -36.4 °F -63.9 °F - N/A% 29.97 in 1.8 mi SSW 12.7 mph - N/A   Unknown
2:26 AM -36.4 °F -63.9 °F - N/A% 29.97 in 2.0 mi SSW 12.7 mph - N/A   Unknown
2:31 AM -36.4 °F -62.7 °F - N/A% 29.97 in 2.1 mi SSW 11.5 mph - N/A   Unknown
2:40 AM -36.4 °F -61.5 °F - N/A% 29.97 in 2.0 mi SSW 10.4 mph - N/A   Unknown
2:50 AM -36.4 °F -61.5 °F - N/A% 29.97 in 1.4 mi SSW 10.4 mph - N/A   Unknown
2:52 AM -36.4 °F -61.5 °F - N/A% 29.97 in 1.1 mi SSW 10.4 mph - N/A   Unknown
3:00 AM -37 °F - - % 30.01 in 1 mi SSW 10.4 mph - -  
3:00 AM -36.4 °F -62.7 °F - N/A% 30.01 in 1.1 mi SSW 11.5 mph - N/A   Unknown
3:08 AM -36.4 °F -61.5 °F - N/A% 29.97 in 1.2 mi SSW 10.4 mph - N/A   Unknown
3:14 AM -36.4 °F -60.1 °F - N/A% 29.98 in 1.2 mi SSW 9.2 mph - N/A   Unknown
3:18 AM -36.4 °F -60.1 °F - N/A% 29.98 in 1.2 mi SSW 9.2 mph - N/A   Unknown
3:33 AM -36.4 °F -60.1 °F - N/A% 29.98 in 1.0 mi SSW 9.2 mph - N/A   Unknown
3:44 AM -38.2 °F -62.3 °F - N/A% 29.98 in 1.5 mi South 9.2 mph - N/A   Unknown
3:48 AM -38.2 °F -63.7 °F - N/A% 29.98 in 1.4 mi SSW 10.4 mph - N/A   Unknown
3:56 AM -38.2 °F -65.0 °F - N/A% 29.98 in 1.0 mi SSW 11.5 mph - N/A   Unknown
4:00 AM -38.2 °F -63.7 °F - N/A% 30.01 in 0.8 mi South 10.4 mph - N/A   Unknown
4:09 AM -38.2 °F -63.7 °F - N/A% 29.97 in 1.5 mi South 10.4 mph - N/A   Unknown
4:16 AM -38.2 °F -63.7 °F - N/A% 29.98 in 1.4 mi South 10.4 mph - N/A   Unknown
4:19 AM -38.2 °F -63.7 °F - N/A% 29.98 in 1.0 mi South 10.4 mph - N/A   Unknown
4:20 AM -38.2 °F -62.3 °F - N/A% 29.98 in 1.0 mi South 9.2 mph - N/A   Unknown
4:36 AM -38.2 °F -60.7 °F - N/A% 29.98 in 1.1 mi South 8.1 mph - N/A   Unknown
4:39 AM -40.0 °F -62.9 °F - N/A% 29.98 in 1.1 mi South 8.1 mph - N/A   Unknown
4:45 AM -40.0 °F -62.9 °F - N/A% 29.98 in 1.4 mi South 8.1 mph - N/A   Unknown
4:49 AM -40.0 °F -64.5 °F - N/A% 29.98 in 1.4 mi South 9.2 mph - N/A   Unknown
4:51 AM -40.0 °F -65.9 °F - N/A% 29.98 in 2.1 mi South 10.4 mph - N/A   Unknown
5:00 AM -40.0 °F -65.9 °F - N/A% 30.01 in 2.2 mi South 10.4 mph - N/A   Unknown
5:03 AM -40.0 °F -65.9 °F - N/A% 29.98 in 2.4 mi South 10.4 mph - N/A   Unknown
5:37 AM -41.8 °F -66.7 °F - N/A% 29.98 in 2.0 mi South 9.2 mph - N/A   Unknown
5:49 AM -41.8 °F -68.2 °F - N/A% 29.97 in 2.0 mi South 10.4 mph - N/A   Unknown
6:00 AM -43 °F - - % 30.00 in 2 mi South 10.4 mph - -  
6:00 AM -41.8 °F -66.7 °F - N/A% 30.00 in 2.1 mi SSE 9.2 mph - N/A   Unknown
6:12 AM -43.6 °F -68.9 °F - N/A% 29.96 in 2.2 mi South 9.2 mph - N/A   Unknown
6:16 AM -43.6 °F -67.3 °F - N/A% 29.96 in 2.4 mi SSE 8.1 mph - N/A   Unknown
6:51 AM -43.6 °F -68.9 °F - N/A% 29.96 in 3.0 mi SE 9.2 mph - N/A   Unknown
7:00 AM -43.6 °F -71.7 °F - N/A% 30.00 in 3.5 mi SSE 11.5 mph - N/A   Unknown
7:07 AM -43.6 °F -71.7 °F - N/A% 29.96 in 3.5 mi SSE 11.5 mph - N/A   Unknown
7:29 AM -43.6 °F -73.0 °F - N/A% 29.95 in 3.0 mi South 12.7 mph - N/A   Unknown
8:00 AM -43.6 °F -70.4 °F - N/A% 29.99 in 3.5 mi SSE 10.4 mph - N/A   Unknown
9:00 AM -43 °F - - % 29.99 in 5 mi SSE 10.4 mph - -  
10:00 AM -43.6 °F -71.7 °F - N/A% 29.99 in 9.0 mi South 11.5 mph - N/A   Unknown
11:00 AM -43.6 °F -71.7 °F - N/A% 30.00 in 7.0 mi SSE 11.5 mph - N/A   Unknown
12:00 PM -43 °F - - % 29.99 in 5 mi SSE 11.5 mph - -  
12:00 PM -43.6 °F -70.4 °F - N/A% 29.99 in 5.0 mi SSE 10.4 mph - N/A   Unknown
2:00 PM -43.6 °F -70.4 °F - N/A% 29.99 in 7.0 mi SSE 10.4 mph - N/A   Unknown
3:00 PM -44 °F - - % 30.00 in 9 mi SSE 9.2 mph - -  
3:00 PM -43.6 °F -68.9 °F - N/A% 30.00 in 9.0 mi SSE 9.2 mph - N/A   Unknown
4:00 PM -43.6 °F -67.3 °F - N/A% 29.99 in 9.0 mi SE 8.1 mph - N/A   Unknown
5:00 PM -43.6 °F -70.4 °F - N/A% 29.99 in 9.0 mi SSE 10.4 mph - N/A   Unknown
6:00 PM -42 °F - - % 29.99 in 6 mi South 11.5 mph - -  
6:00 PM -41.8 °F -69.5 °F - N/A% 29.99 in 6.0 mi South 11.5 mph - N/A   Unknown
7:00 PM -43.6 °F -71.7 °F - N/A% 30.00 in 9.0 mi South 11.5 mph - N/A   Unknown
8:00 PM -43.6 °F -65.4 °F - N/A% 30.01 in 9.0 mi SE 6.9 mph - N/A   Unknown
8:36 PM -43.6 °F -70.4 °F - N/A% 29.97 in 2.6 mi SSE 10.4 mph - N/A   Unknown
8:54 PM -43.6 °F -68.9 °F - N/A% 29.96 in 9.0 mi SE 9.2 mph - N/A   Unknown
9:00 PM -43 °F - - % 30.00 in 9 mi SE 9.2 mph - -  
9:00 PM -43.6 °F -68.9 °F - N/A% 30.00 in 9.0 mi SE 9.2 mph - N/A   Unknown
10:00 PM -43.6 °F -67.3 °F - N/A% 30.00 in 9.0 mi SE 8.1 mph - N/A   Unknown